When you browse on this site, cookies collect data to enhance your experience and personalize the content and advertising you see.
Visit our Privacy Policy to learn more. By continuing to use the site, you agree to this use of cookies and data.
  • Em Portugal
  • Lista de países
  • Para 7 dias
  • Temperatura da água
  • Mapas de satélite
  • Mapa do tempo
  • Widgets de tempo
  • user-avatar
    Iniciar Sessão

    Previsão horária em Escaldes-Engordany

    Hoje, 22 Maio, Quarta-feira

    Tempo Temperatura Precipitação Vento Pressão Humidade
    00:00 +6°C° 0 mm 1 m/s 638 mmHg 93%
    01:00 +6°C° 0 mm 1 m/s 638 mmHg 93%
    02:00 +6°C° 0 mm 1 m/s 638 mmHg 93%
    03:00 +5°C° 0 mm 1 m/s 638 mmHg 93%
    04:00 +6°C° 0 mm 1 m/s 638 mmHg 90%
    05:00 +7°C° 0 mm 1 m/s 638 mmHg 87%
    06:00 +8°C° 0 mm 1 m/s 639 mmHg 85%
    07:00 +10°C° 0 mm 1 m/s 640 mmHg 73%
    08:00 +12°C° 0 mm 1 m/s 641 mmHg 62%
    09:00 +15°C° 0 mm 1 m/s 641 mmHg 50%
    10:00 +15°C° 0 mm 1 m/s 642 mmHg 49%
    11:00 +16°C° 0 mm 1 m/s 642 mmHg 47%
    12:00 +18°C° 0 mm 1 m/s 642 mmHg 45%
    13:00 +16°C° 0.2 mm 1 m/s 641 mmHg 50%
    14:00 +15°C° 0.2 mm 1 m/s 641 mmHg 55%
    15:00 +13°C° 0.2 mm 0 m/s 640 mmHg 59%
    16:00 +13°C° 0.1 mm 0 m/s 640 mmHg 62%
    17:00 +13°C° 0.1 mm 1 m/s 640 mmHg 65%
    18:00 +13°C° 0.1 mm 1 m/s 640 mmHg 68%
    19:00 +11°C° 0 mm 1 m/s 639 mmHg 74%
    20:00 +10°C° 0 mm 1 m/s 639 mmHg 80%
    21:00 +8°C° 0 mm 1 m/s 639 mmHg 86%
    22:00 +8°C° 0 mm 1 m/s 639 mmHg 87%
    23:00 +7°C° 0 mm 1 m/s 639 mmHg 87%

    Amanhã, 23 Maio, Quinta-feira

    Tempo Temperatura Precipitação Vento Pressão Humidade
    00:00 +7°C° 0 mm 1 m/s 638 mmHg 87%
    01:00 +7°C° 0 mm 1 m/s 638 mmHg 85%
    02:00 +7°C° 0 mm 1 m/s 638 mmHg 84%
    03:00 +6°C° 0 mm 1 m/s 638 mmHg 82%
    04:00 +8°C° 0 mm 1 m/s 638 mmHg 78%
    05:00 +9°C° 0 mm 1 m/s 639 mmHg 74%
    06:00 +10°C° 0 mm 1 m/s 639 mmHg 70%
    07:00 +12°C° 0 mm 1 m/s 640 mmHg 61%
    08:00 +15°C° 0 mm 1 m/s 641 mmHg 52%
    09:00 +18°C° 0 mm 1 m/s 642 mmHg 44%
    10:00 +19°C° 0 mm 1 m/s 642 mmHg 41%
    11:00 +21°C° 0 mm 1 m/s 643 mmHg 38%
    12:00 +22°C° 0 mm 1 m/s 643 mmHg 35%
    13:00 +20°C° 0.1 mm 1 m/s 642 mmHg 42%
    14:00 +19°C° 0.1 mm 1 m/s 641 mmHg 48%
    15:00 +16°C° 0.1 mm 1 m/s 640 mmHg 55%
    16:00 +15°C° 0.4 mm 1 m/s 640 mmHg 62%
    17:00 +14°C° 0.4 mm 1 m/s 640 mmHg 69%
    18:00 +13°C° 0.4 mm 1 m/s 639 mmHg 76%
    19:00 +13°C° 1 mm 1 m/s 639 mmHg 80%
    20:00 +12°C° 1 mm 1 m/s 639 mmHg 84%
    21:00 +11°C° 1 mm 1 m/s 639 mmHg 88%
    22:00 +11°C° 0.4 mm 1 m/s 639 mmHg 89%
    23:00 +10°C° 0.4 mm 1 m/s 639 mmHg 89%

    Depois de amanhã, 24 Maio, Sexta-feira

    Tempo Temperatura Precipitação Vento Pressão Humidade
    00:00 +10°C° 0.4 mm 1 m/s 639 mmHg 90%
    01:00 +10°C° 0.4 mm 1 m/s 638 mmHg 90%
    02:00 +10°C° 0.4 mm 1 m/s 638 mmHg 90%
    03:00 +9°C° 0.4 mm 1 m/s 638 mmHg 91%
    04:00 +10°C° 0.5 mm 1 m/s 638 mmHg 89%
    05:00 +10°C° 0.5 mm 1 m/s 638 mmHg 88%
    06:00 +10°C° 0.5 mm 1 m/s 638 mmHg 87%
    07:00 +11°C° 0.3 mm 1 m/s 639 mmHg 82%
    08:00 +12°C° 0.3 mm 1 m/s 639 mmHg 77%
    09:00 +13°C° 0.3 mm 1 m/s 640 mmHg 73%
    10:00 +13°C° 1.6 mm 1 m/s 640 mmHg 78%
    11:00 +12°C° 1.6 mm 1 m/s 639 mmHg 83%
    12:00 +11°C° 1.6 mm 1 m/s 639 mmHg 88%
    13:00 +11°C° 1.4 mm 1 m/s 639 mmHg 89%
    14:00 +10°C° 1.4 mm 1 m/s 638 mmHg 90%
    15:00 +9°C° 1.4 mm 2 m/s 638 mmHg 92%
    16:00 +9°C° 1.1 mm 2 m/s 638 mmHg 92%
    17:00 +9°C° 1.1 mm 2 m/s 638 mmHg 93%
    18:00 +8°C° 1.1 mm 2 m/s 637 mmHg 94%
    19:00 +8°C° 0.3 mm 2 m/s 638 mmHg 94%
    20:00 +8°C° 0.3 mm 2 m/s 638 mmHg 94%
    21:00 +7°C° 0.3 mm 2 m/s 638 mmHg 94%
    22:00 +7°C° 0.1 mm 2 m/s 638 mmHg 94%
    23:00 +7°C° 0.1 mm 2 m/s 638 mmHg 94%

    25 Maio, Sábado

    Tempo Temperatura Precipitação Vento Pressão Humidade
    00:00 +7°C° 0.1 mm 2 m/s 638 mmHg 94%
    01:00 +7°C° 0.2 mm 2 m/s 638 mmHg 94%
    02:00 +7°C° 0.2 mm 2 m/s 638 mmHg 94%
    03:00 +7°C° 0.2 mm 2 m/s 638 mmHg 94%
    04:00 +7°C° 0.4 mm 2 m/s 638 mmHg 94%
    05:00 +8°C° 0.4 mm 2 m/s 638 mmHg 94%
    06:00 +8°C° 0.4 mm 2 m/s 638 mmHg 93%
    07:00 +8°C° 1 mm 2 m/s 638 mmHg 92%
    08:00 +8°C° 1 mm 2 m/s 639 mmHg 91%
    09:00 +9°C° 1 mm 2 m/s 639 mmHg 90%
    10:00 +9°C° 0.7 mm 2 m/s 639 mmHg 88%
    11:00 +9°C° 0.7 mm 2 m/s 639 mmHg 86%
    12:00 +9°C° 0.7 mm 3 m/s 639 mmHg 84%
    13:00 +10°C° 0.4 mm 3 m/s 639 mmHg 82%
    14:00 +10°C° 0.4 mm 3 m/s 639 mmHg 80%
    15:00 +11°C° 0.4 mm 3 m/s 639 mmHg 77%
    16:00 +10°C° 0.2 mm 3 m/s 639 mmHg 80%
    17:00 +10°C° 0.2 mm 3 m/s 639 mmHg 82%
    18:00 +9°C° 0.2 mm 3 m/s 639 mmHg 84%
    19:00 +8°C° 0 mm 3 m/s 639 mmHg 86%
    20:00 +8°C° 0 mm 2 m/s 639 mmHg 88%
    21:00 +7°C° 0 mm 2 m/s 640 mmHg 91%
    22:00 +7°C° 0 mm 2 m/s 639 mmHg 91%
    23:00 +6°C° 0 mm 2 m/s 639 mmHg 92%

    26 Maio, Domingo

    Tempo Temperatura Precipitação Vento Pressão Humidade
    00:00 +6°C° 0 mm 2 m/s 639 mmHg 92%
    01:00 +6°C° 0 mm 2 m/s 639 mmHg 92%
    02:00 +6°C° 0 mm 2 m/s 639 mmHg 92%
    03:00 +6°C° 0 mm 2 m/s 639 mmHg 91%
    04:00 +7°C° 0 mm 2 m/s 639 mmHg 89%
    05:00 +7°C° 0 mm 3 m/s 640 mmHg 87%
    06:00 +8°C° 0 mm 3 m/s 640 mmHg 85%
    07:00 +9°C° 0 mm 3 m/s 640 mmHg 80%
    08:00 +10°C° 0 mm 3 m/s 641 mmHg 75%
    09:00 +11°C° 0 mm 3 m/s 641 mmHg 70%
    10:00 +13°C° 0 mm 3 m/s 641 mmHg 65%
    11:00 +14°C° 0 mm 3 m/s 642 mmHg 59%
    12:00 +16°C° 0 mm 3 m/s 642 mmHg 53%
    13:00 +16°C° 0 mm 3 m/s 642 mmHg 54%
    14:00 +16°C° 0 mm 3 m/s 641 mmHg 55%
    15:00 +15°C° 0 mm 4 m/s 641 mmHg 56%
    16:00 +14°C° 0 mm 3 m/s 640 mmHg 60%
    17:00 +13°C° 0 mm 3 m/s 640 mmHg 65%
    18:00 +13°C° 0 mm 2 m/s 640 mmHg 70%
    19:00 +10°C° 0 mm 2 m/s 640 mmHg 77%
    20:00 +9°C° 0 mm 2 m/s 639 mmHg 83%
    21:00 +7°C° 0 mm 2 m/s 639 mmHg 90%
    22:00 +8°C° 0 mm 2 m/s 639 mmHg 90%
    23:00 +8°C° 0 mm 2 m/s 639 mmHg 90%

    27 Maio, Segunda-feira

    Tempo Temperatura Precipitação Vento Pressão Humidade
    00:00 +9°C° 0 mm 3 m/s 639 mmHg 90%
    01:00 +9°C° 0 mm 3 m/s 639 mmHg 90%
    02:00 +8°C° 0 mm 3 m/s 639 mmHg 89%
    03:00 +8°C° 0 mm 3 m/s 639 mmHg 89%
    04:00 +9°C° 0 mm 2 m/s 639 mmHg 87%
    05:00 +9°C° 0 mm 2 m/s 639 mmHg 85%
    06:00 +9°C° 0 mm 2 m/s 639 mmHg 83%
    07:00 +12°C° 0 mm 2 m/s 640 mmHg 76%
    08:00 +13°C° 0 mm 2 m/s 640 mmHg 69%
    09:00 +15°C° 0 mm 2 m/s 641 mmHg 62%
    10:00 +16°C° 0 mm 2 m/s 641 mmHg 56%
    11:00 +18°C° 0 mm 2 m/s 641 mmHg 51%
    12:00 +19°C° 0 mm 2 m/s 642 mmHg 45%
    13:00 +19°C° 0 mm 2 m/s 641 mmHg 48%
    14:00 +19°C° 0 mm 2 m/s 641 mmHg 50%
    15:00 +18°C° 0 mm 2 m/s 641 mmHg 53%
    16:00 +17°C° 0 mm 2 m/s 640 mmHg 60%
    17:00 +16°C° 0 mm 2 m/s 640 mmHg 67%
    18:00 +14°C° 0 mm 2 m/s 639 mmHg 74%
    19:00 +13°C° 0 mm 2 m/s 639 mmHg 79%
    20:00 +10°C° 0 mm 2 m/s 639 mmHg 85%
    21:00 +8°C° 0 mm 2 m/s 638 mmHg 91%
    22:00 +8°C° 0 mm 2 m/s 638 mmHg 90%
    23:00 +7°C° 0 mm 2 m/s 638 mmHg 89%
    Mostrar mais